Wind_Speed
42 41 40 37 35 34 33 33 34 33 32 32 30 30 29 28 28 28 27 26 26 25 25 25 24 24 24 24 24 25 23 22 22 21 21 20 20 19 19 19 18 18 20 20 18 19 19 20 20 19 18 17 17 18 17 17 17 17 16 16 15 14 14 14 14 14 14 14 14 14 14 14 14 14 14 14 14 14 14 14 14 14 14 14 14 15
43 41 39 37 36 37 37 37 36 35 33 33 31 31 30 30 29 29 29 28 27 27 27 27 25 24 25 26 26 26 24 22 23 23 22 22 21 21 21 21 20 20 21 20 19 20 21 21 21 19 19 19 19 19 18 18 18 18 18 18 17 15 15 15 15 15 15 15 15 15 16 16 16 16 16 16 16 16 16 16 16 16 16 16 17 18
44 42 39 39 40 40 39 38 36 35 34 33 32 32 31 31 31 30 30 29 28 28 28 28 26 24 26 27 27 26 24 23 24 23 22 23 23 23 22 22 22 21 22 21 20 21 22 21 21 20 20 21 21 20 19 19 20 20 20 20 19 18 17 17 16 16 16 16 16 16 17 17 17 18 18 18 18 18 18 18 19 18 18 19 19 20
41 40 40 40 40 40 39 38 37 36 34 34 33 33 33 32 32 31 30 30 30 30 29 29 28 25 26 27 27 27 25 24 24 24 24 25 25 24 23 22 23 23 23 22 21 21 21 21 21 22 22 22 22 21 21 21 21 20 20 21 20 19 18 18 18 18 18 17 17 18 19 19 19 20 20 20 21 21 21 22 22 22 22 22 23 24
40 40 41 41 41 40 39 38 37 36 36 35 35 34 34 33 32 31 31 31 31 31 30 30 29 26 26 27 27 27 26 24 25 25 26 27 26 25 24 23 24 24 24 23 22 21 21 22 23 24 24 23 23 22 22 21 20 20 21 21 21 21 20 20 20 20 19 19 19 20 20 21 21 22 22 23 23 23 24 25 25 26 26 26 26 27
42 42 43 42 42 41 40 39 38 37 37 36 36 35 34 34 33 32 32 32 32 32 31 30 31 28 26 27 27 27 27 25 26 26 27 27 25 25 25 25 26 26 25 24 23 22 22 23 24 25 24 23 23 23 22 22 21 21 22 22 22 22 22 22 22 22 22 21 22 22 22 23 23 24 25 25 25 26 26 27 28 29 29 29 30 30
43 43 43 43 42 41 41 40 38 38 37 36 36 36 35 34 34 33 33 33 33 32 31 31 31 29 26 26 27 27 27 27 26 27 27 27 26 26 26 27 27 27 26 25 24 24 24 25 25 25 25 24 24 24 24 24 23 24 24 24 23 23 24 24 24 24 24 24 24 24 24 25 25 26 28 28 27 28 29 29 30 31 32 32 33 33
43 42 43 42 41 41 40 39 38 38 37 37 37 36 36 35 35 35 34 34 34 33 32 31 32 30 26 25 26 27 28 29 28 27 28 28 27 26 27 27 28 27 26 25 25 26 26 26 26 27 27 27 27 26 26 26 26 26 26 26 26 26 26 26 25 25 25 26 26 26 26 26 27 28 30 30 30 30 31 32 33 33 34 35 35 36
41 41 41 41 40 40 39 39 39 39 39 39 38 37 37 37 36 36 35 35 34 33 33 31 31 32 28 24 25 27 28 29 29 28 28 28 28 27 27 27 28 28 27 27 27 28 28 29 29 29 29 30 29 28 28 28 28 28 29 29 28 29 29 28 28 28 28 28 28 28 28 29 29 31 31 32 32 33 34 34 35 36 36 37 37 38
42 41 41 41 41 40 40 40 40 40 40 40 39 38 38 37 36 36 35 35 34 34 33 32 31 33 30 25 26 28 28 29 30 30 29 29 28 27 27 27 28 28 28 28 29 29 30 30 30 31 31 31 31 31 30 30 31 31 31 31 31 31 31 31 31 31 31 30 30 31 31 31 32 33 33 33 34 35 36 37 37 38 39 39 39 40
43 43 43 42 42 42 42 42 42 42 41 41 40 39 38 38 37 36 36 35 35 35 34 32 31 32 32 27 26 28 28 29 30 30 30 29 29 28 27 27 28 29 29 30 30 31 31 32 32 32 32 33 33 33 33 33 33 33 34 34 34 34 34 34 34 34 34 34 34 34 34 34 35 36 36 36 37 38 39 39 40 41 41 42 42 43
44 44 44 44 43 42 42 42 42 42 42 41 41 40 38 38 37 37 36 35 36 35 33 32 31 32 33 29 26 28 29 29 29 30 30 30 29 29 28 27 28 29 30 30 31 32 33 33 34 34 34 35 35 36 36 36 36 36 36 36 37 37 37 37 37 37 37 37 37 37 37 37 38 39 39 39 40 41 42 42 42 43 44 44 45 45
44 44 44 44 43 43 42 43 43 43 42 42 41 40 39 38 38 37 36 36 35 34 33 32 31 32 32 30 28 29 29 29 29 30 30 31 30 29 28 28 27 28 29 30 31 32 33 34 35 35 36 37 37 38 39 39 39 39 40 40 40 40 40 40 40 40 40 41 40 40 40 41 41 42 42 43 43 44 45 45 45 46 46 47 47 47
42 42 43 43 43 43 43 43 43 42 41 41 40 39 39 38 38 38 37 36 35 34 33 31 31 31 31 29 29 29 29 28 28 30 31 32 31 30 30 29 29 29 30 30 31 32 33 34 35 36 37 38 38 39 40 41 41 41 42 42 42 42 42 42 42 43 43 44 44 44 44 44 44 45 45 46 47 47 48 48 48 49 49 49 49 50
40 41 41 41 42 42 42 42 41 40 40 40 40 40 40 39 39 39 38 37 36 35 34 32 30 29 28 28 29 29 28 28 28 30 32 32 31 31 31 31 31 31 31 31 31 32 33 34 35 36 37 38 39 40 41 42 42 43 43 44 44 44 44 45 45 46 46 47 47 47 47 48 48 48 49 49 50 50 50 50 50 51 51 51 52 52
40 40 39 40 40 40 40 41 41 41 41 41 41 41 41 40 40 40 39 39 38 37 35 33 31 28 27 28 28 28 27 27 28 30 31 32 32 32 32 32 32 32 32 33 33 33 33 34 35 37 38 39 40 42 43 43 44 44 45 45 45 45 46 47 47 48 48 49 49 49 50 50 50 50 51 51 52 52 52 52 52 52 52 53 54 55
40 39 39 39 39 40 40 41 41 41 41 41 41 41 40 40 40 39 40 40 39 39 37 34 32 29 28 29 29 28 27 27 28 29 30 31 32 32 33 33 33 34 34 34 34 35 35 36 37 38 39 40 42 43 45 46 46 46 46 46 47 47 48 48 49 49 50 50 50 50 51 51 52 52 52 53 53 53 53 53 53 53 54 55 55 56
40 40 40 39 40 40 40 41 41 41 40 40 40 40 39 40 40 40 40 40 40 39 38 35 33 31 30 30 29 30 29 29 29 29 29 30 30 31 32 33 34 34 35 35 35 36 37 38 39 40 41 42 43 45 46 47 48 47 47 47 48 49 50 50 51 51 51 52 52 53 53 53 53 54 54 55 55 55 55 55 55 55 56 56 56 57
43 43 43 42 42 42 42 42 42 42 41 41 40 41 41 42 42 41 41 41 40 39 38 37 35 33 31 30 30 31 32 32 31 31 30 30 30 31 32 33 34 34 35 35 36 37 38 39 41 42 43 44 45 47 47 48 48 48 48 49 50 51 51 52 52 53 53 54 54 54 55 55 56 56 57 57 57 58 57 57 57 57 57 57 57 57
46 46 46 46 45 45 45 45 44 43 42 42 42 42 42 42 41 41 40 40 40 39 39 38 37 35 33 32 32 33 34 35 35 34 34 33 33 33 34 34 35 35 36 36 37 38 40 41 42 43 44 45 46 47 48 49 49 50 50 51 52 53 53 54 54 55 55 56 56 56 57 57 57 58 58 58 59 59 58 58 58 58 58 58 58 59
50 49 49 49 49 49 48 47 45 44 43 43 43 43 42 42 42 41 41 40 40 40 40 40 39 37 35 35 35 35 36 37 37 38 38 37 37 37 37 37 37 37 37 38 39 41 42 43 44 44 45 46 47 47 48 49 50 50 51 52 53 54 54 55 55 56 56 57 57 57 58 58 58 58 59 59 59 59 59 59 59 59 60 60 59 60
53 52 52 52 52 51 49 48 47 46 46 46 46 45 44 44 44 44 44 43 42 42 42 42 42 40 39 39 38 38 38 39 39 40 41 42 42 42 41 40 39 39 39 40 42 43 44 45 46 47 48 49 49 50 50 51 51 52 53 53 54 55 55 56 56 56 57 57 57 57 58 58 59 59 59 59 59 60 60 60 60 61 61 61 60 61
55 55 55 55 54 52 51 50 49 49 49 49 48 47 47 47 47 47 47 46 45 46 45 45 45 43 42 41 41 42 42 42 42 44 45 46 46 46 46 45 44 44 43 43 44 45 45 46 47 48 50 51 52 53 54 54 55 56 56 56 57 57 58 58 58 58 58 58 58 59 59 60 60 60 60 60 60 61 61 61 61 61 62 62 62 62
58 58 58 58 57 56 55 53 52 52 51 51 51 49 49 49 49 50 50 49 50 49 48 48 48 46 44 44 45 45 46 46 47 48 48 49 50 50 50 49 48 48 48 48 48 48 49 49 50 51 52 53 54 55 56 56 57 57 58 58 59 59 60 60 60 61 61 61 61 62 62 63 63 64 64 63 63 63 62 62 62 62 62 62 62 62
60 61 61 60 61 60 60 59 57 56 55 54 53 52 53 52 53 53 53 53 54 52 50 52 50 47 46 46 48 50 50 51 52 52 52 52 53 53 52 51 51 52 53 53 53 53 53 54 54 54 55 56 56 56 57 57 57 57 58 59 59 60 61 61 62 63 63 64 64 64 64 64 65 65 65 65 65 65 65 64 63 63 63 62 62 62
61 62 62 62 63 63 62 62 60 57 57 57 56 55 55 55 55 55 54 55 55 53 53 54 51 49 49 49 52 54 55 55 55 54 54 55 55 55 55 54 54 56 57 57 57 58 57 58 59 59 58 58 58 58 58 58 58 58 59 60 60 61 62 63 64 64 65 65 65 65 65 65 65 65 65 65 65 65 65 64 64 64 64 63 63 63
63 64 63 64 64 63 61 61 59 58 57 57 56 56 56 56 56 56 57 58 55 54 55 55 52 52 51 52 55 56 56 57 56 56 57 58 59 58 58 58 58 59 60 60 60 61 61 61 62 62 62 61 61 61 60 60 61 61 61 62 63 64 64 65 65 65 66 66 65 65 65 65 64 64 64 63 64 64 64 64 64 64 64 64 64 63
64 65 65 65 64 63 62 62 62 61 60 59 58 58 57 57 56 57 59 58 56 57 59 56 54 54 54 56 57 56 58 59 59 60 61 62 63 62 61 62 61 61 63 63 63 63 64 64 63 63 64 64 64 64 64 64 64 64 64 64 65 65 65 65 65 65 65 64 64 64 63 63 63 62 62 62 62 63 63 63 63 62 62 62 62 62
65 65 66 65 64 64 63 64 64 63 63 62 62 62 62 61 61 62 62 60 60 62 61 58 58 58 57 59 59 59 61 62 62 63 64 64 66 65 64 63 63 63 64 65 66 66 66 65 64 63 64 64 65 66 66 67 67 66 66 65 65 65 64 64 63 63 63 62 62 62 61 61 61 61 61 61 62 62 61 61 60 59 59 60 60 61
64 64 65 65 65 64 64 64 64 64 64 64 63 63 63 64 64 64 63 62 63 64 63 62 63 61 59 61 61 60 62 63 62 63 64 64 65 65 65 65 65 66 66 67 68 67 67 66 66 65 65 66 66 67 67 68 68 68 68 67 66 65 64 63 62 62 61 61 61 61 61 61 61 61 61 60 60 59 58 58 57 58 59 60 61 61
61 62 63 63 64 65 65 65 65 65 65 65 64 64 63 64 64 65 65 64 65 66 65 65 66 63 61 62 61 60 61 61 62 63 63 64 65 66 67 68 69 69 69 69 69 69 68 68 68 68 68 67 67 67 67 68 68 68 68 67 66 65 64 64 63 62 62 62 62 62 62 62 61 60 59 58 57 56 56 56 57 58 59 60 60 61
59 60 61 61 62 64 64 64 65 65 65 66 66 65 65 65 66 66 66 65 66 66 65 66 67 64 62 61 60 59 61 61 62 63 64 66 68 69 70 70 71 71 70 70 70 69 69 70 70 70 69 68 67 66 66 66 66 66 66 66 66 65 65 65 65 64 64 64 64 63 63 62 60 59 59 58 57 57 57 58 59 60 60 61 61 61
60 60 60 60 61 62 63 63 63 63 64 67 68 66 65 66 66 66 66 65 65 64 64 65 65 63 63 63 62 61 62 63 64 65 66 67 68 69 69 69 69 69 69 69 69 69 69 69 69 70 69 68 67 66 65 65 65 66 66 66 66 66 66 66 65 65 65 64 64 63 63 62 61 61 60 60 60 60 61 61 62 62 63 63 64 64
62 61 61 61 61 61 62 62 61 62 65 67 66 64 63 64 63 63 63 62 61 62 63 64 64 64 65 66 65 64 63 63 64 65 66 66 67 67 67 66 66 66 67 67 68 68 68 68 68 68 68 68 68 67 67 67 67 67 67 67 67 66 66 65 64 64 64 63 63 62 62 62 62 62 62 63 63 64 64 65 65 66 66 66 66 66
62 62 63 62 62 62 63 62 62 64 67 66 64 62 62 61 61 61 62 62 62 62 62 63 63 63 62 62 62 63 63 63 64 64 64 64 64 63 63 63 64 64 64 65 66 67 68 69 69 70 70 69 69 69 68 68 67 67 67 66 66 65 65 64 63 63 63 63 63 63 63 63 63 64 64 65 66 67 68 69 69 70 70 70 71 72
61 62 62 62 61 62 62 63 64 66 66 64 62 62 61 60 60 61 62 62 61 60 59 60 60 59 58 59 60 62 63 64 64 64 63 62 61 61 62 62 63 63 64 64 65 65 66 66 67 68 68 68 67 67 67 66 66 65 65 65 65 65 65 65 65 65 65 65 65 65 66 66 66 66 67 68 69 70 72 73 74 75 76 76 76 77
61 61 60 60 61 61 62 63 63 63 63 62 61 61 60 59 59 59 61 60 58 58 59 60 60 59 59 60 62 63 64 65 64 64 63 62 61 61 61 62 62 62 62 62 62 62 63 64 65 66 67 67 67 66 66 66 66 66 67 67 68 68 68 68 67 67 67 68 68 69 70 70 70 71 72 73 74 74 75 77 78 79 80 81 81 82
62 62 61 61 62 62 62 63 62 63 64 61 59 59 59 59 59 60 62 63 60 59 60 61 60 60 60 61 62 62 64 64 63 62 61 61 61 61 61 61 61 62 62 63 64 65 66 67 67 68 69 69 69 69 69 69 69 70 70 71 71 71 71 70 70 70 70 71 72 73 74 75 76 76 77 78 79 79 80 81 82 83 84 84 85 85
60 61 61 62 63 63 63 64 65 67 66 61 59 59 60 62 62 62 65 66 61 59 60 61 61 60 59 60 61 61 62 62 60 59 60 60 60 61 62 63 64 65 66 67 68 69 69 69 69 70 70 70 70 70 70 70 71 72 72 73 73 74 73 73 74 74 74 75 76 78 79 80 81 81 82 83 83 84 85 85 86 87 87 87 88 88
59 59 60 62 63 63 63 64 66 67 66 62 60 61 61 62 62 64 66 63 58 56 58 59 58 57 57 58 59 59 60 60 59 59 61 62 63 65 66 67 68 68 69 69 69 69 70 69 69 70 70 70 71 71 71 71 72 73 74 75 75 76 76 77 77 78 79 80 81 83 84 85 86 86 87 87 87 87 88 88 88 89 89 90 90 90
61 61 61 62 63 63 63 65 66 66 64 61 61 61 61 62 63 64 64 60 57 58 60 59 58 56 56 58 59 59 60 61 62 64 66 67 68 69 69 70 70 70 70 70 70 70 70 70 71 71 72 72 73 73 74 74 75 76 77 78 79 79 80 81 82 83 84 85 86 88 89 89 90 90 90 91 91 91 91 91 91 91 91 91 90 90
66 65 65 66 66 66 66 66 67 67 64 61 61 62 64 67 68 66 63 61 60 62 63 63 62 60 59 61 63 64 66 67 68 69 70 71 72 71 72 72 72 72 72 71 71 71 72 72 73 73 74 75 76 76 77 78 79 80 81 82 82 83 84 85 86 87 88 89 90 91 91 92 92 93 93 94 94 94 94 94 94 94 93 93 92 92
70 70 70 70 68 68 69 69 70 71 68 64 65 67 69 70 70 68 65 64 64 64 65 66 66 65 65 66 68 69 71 72 73 73 74 74 74 74 74 73 73 73 73 73 73 73 74 74 75 76 77 78 78 79 80 81 81 82 83 84 85 85 86 87 88 89 90 90 91 92 92 92 93 93 94 94 95 95 95 95 95 95 95 95 95 94
73 72 73 73 72 72 72 72 73 73 71 68 68 69 70 71 71 71 71 70 69 68 69 69 69 70 71 73 74 74 74 73 74 74 74 74 74 74 73 73 73 73 74 74 75 76 76 77 78 78 79 80 81 81 82 83 83 83 84 84 85 86 87 88 89 89 89 90 90 91 91 91 91 92 92 93 94 94 95 95 95 95 95 96 96 96
73 73 73 73 73 74 74 73 72 71 70 70 71 72 72 74 75 75 75 75 74 74 74 74 75 77 77 78 78 77 76 75 74 74 74 75 75 75 75 75 75 76 76 77 78 78 79 79 79 80 80 80 80 81 82 83 84 84 85 85 86 87 87 88 88 89 89 89 89 90 90 91 91 91 92 93 93 94 95 95 95 95 96 96 97 97
71 71 71 70 71 73 73 73 73 72 72 73 73 74 75 77 77 77 78 78 78 78 79 80 81 81 81 80 79 78 77 77 76 76 75 76 76 76 76 76 76 76 76 77 77 78 78 78 79 79 78 78 78 78 79 80 82 83 85 86 87 87 88 89 89 90 90 90 90 91 91 92 92 92 93 93 94 95 95 96 96 96 96 96 97 97
71 70 71 71 71 72 74 74 73 73 74 74 74 75 76 77 78 78 78 78 79 79 80 81 81 81 81 80 79 78 78 78 77 77 76 76 76 76 76 76 76 76 76 76 76 76 76 76 76 76 76 76 77 77 77 78 80 82 83 85 86 87 88 89 90 90 90 91 91 91 91 92 92 93 93 94 95 95 95 96 96 96 96 96 96 96
71 70 70 71 71 71 72 74 73 73 74 75 75 75 75 75 76 76 75 76 77 77 78 78 78 78 78 78 77 77 77 76 76 76 75 75 75 74 74 74 74 74 74 74 75 75 75 74 74 75 75 75 76 76 77 77 79 80 82 83 85 86 87 88 88 89 90 90 91 91 91 92 92 93 93 94 94 95 95 95 95 95 94 93 93 93
70 70 70 71 72 72 73 73 73 74 74 73 71 70 70 70 71 72 72 73 74 75 75 75 75 75 75 74 74 74 73 73 73 72 72 71 71 70 70 70 70 70 71 71 71 72 73 73 73 74 74 75 76 77 77 78 79 81 82 84 85 86 87 88 88 89 89 90 91 91 92 92 92 93 93 94 93 93 93 93 93 92 91 90 91 91
69 69 70 70 71 73 73 70 68 67 67 66 65 64 66 68 69 70 70 71 71 71 71 70 69 69 69 69 70 70 70 70 69 69 69 69 68 68 68 68 68 69 69 70 71 71 72 73 74 74 75 76 77 78 79 80 81 83 84 85 86 87 88 89 89 90 90 91 91 92 92 92 92 92 92 92 92 91 91 90 90 90 90 89 89 90
66 66 66 66 66 66 65 64 64 64 64 64 64 64 65 65 65 65 66 66 66 66 66 66 65 65 65 65 66 67 67 68 68 68 69 69 69 69 70 70 70 70 71 72 72 73 73 74 75 76 77 78 79 80 81 83 84 85 86 87 88 89 90 91 91 91 92 92 93 93 93 92 92 91 91 91 91 90 90 89 88 89 90 90 89 88
Wind_Direction
210 210 209 210 213 216 218 220 222 223 225 227 229 232 235 238 240 242 243 244 243 243 243 242 240 240 243 242 241 240 239 239 241 242 243 244 246 248 249 249 248 247 248 250 250 248 244 242 244 248 251 255 259 264 268 272 275 277 278 277 277 276 274 274 277 280 284 288 291 292 293 294 297 299 302 304 306 307 309 311 313 315 316 316 315 316
211 211 211 214 217 220 221 222 224 226 228 231 233 236 238 240 242 243 245 245 245 245 245 245 243 240 242 243 242 241 239 238 241 242 244 246 245 246 247 247 247 247 250 251 249 247 244 243 244 246 250 253 256 261 267 272 274 276 278 278 279 278 275 274 275 277 280 285 289 292 293 296 298 299 301 302 303 304 307 309 309 311 312 312 312 313
212 212 214 217 219 221 223 225 228 230 232 235 237 239 241 242 243 244 245 245 246 248 248 249 247 243 243 246 245 244 240 238 240 241 243 245 245 245 245 247 248 249 252 252 250 249 248 246 246 246 248 251 255 260 265 269 272 275 278 279 280 279 277 275 274 275 278 282 287 290 292 295 298 299 300 301 301 302 305 307 307 308 309 309 309 310
216 218 220 221 222 224 226 228 231 233 235 237 239 241 242 243 243 244 245 247 249 251 251 252 250 245 244 246 247 246 242 238 239 239 240 243 244 245 245 246 248 249 252 254 253 252 251 248 246 245 247 250 254 258 262 267 272 277 279 280 281 281 279 277 275 275 277 280 283 286 290 293 296 298 299 300 301 302 304 304 304 306 306 307 307 307
219 222 223 224 225 227 228 230 232 234 236 238 239 241 242 242 243 244 247 250 252 253 253 253 252 246 244 245 245 246 244 240 238 238 238 241 243 245 246 245 246 248 250 253 254 253 250 246 245 245 247 251 255 259 263 268 273 277 278 280 280 281 281 279 277 276 277 279 281 284 288 291 294 296 298 299 300 302 303 302 303 303 304 305 305 305
221 222 223 224 226 227 229 231 232 234 236 237 238 240 240 241 242 245 247 250 252 253 253 253 253 248 243 244 244 245 245 242 239 239 239 240 241 243 245 245 245 246 248 252 255 253 249 247 247 249 252 255 258 262 265 267 269 271 273 275 278 280 280 280 279 278 278 279 281 284 286 289 292 294 294 296 299 301 301 301 302 302 302 302 302 302
222 224 225 226 227 228 229 231 232 235 236 237 238 239 240 241 243 246 248 250 250 251 252 252 253 249 242 242 244 245 246 244 241 240 241 241 241 241 243 244 245 246 248 251 254 254 251 250 251 253 255 257 258 261 263 265 266 267 269 271 275 276 277 279 280 279 279 279 281 283 286 288 290 291 291 293 296 298 299 300 301 301 301 301 300 300
223 225 227 228 229 230 231 233 234 236 237 238 238 239 240 242 244 246 247 249 250 250 251 250 252 251 243 239 243 244 246 247 244 242 242 242 243 242 243 244 244 246 248 250 252 253 252 250 250 253 255 257 258 260 262 264 266 268 269 270 272 274 276 278 280 280 280 279 280 282 284 287 288 289 290 292 294 295 295 297 298 298 299 299 299 298
224 226 227 228 229 230 232 234 235 236 237 238 238 239 240 242 243 245 247 249 250 251 251 250 251 252 245 237 239 243 244 247 248 246 244 244 245 244 245 246 245 246 248 249 250 251 250 250 250 252 254 257 259 260 262 264 266 268 270 271 272 274 276 278 280 281 281 281 281 281 282 285 286 287 289 290 292 292 292 293 294 295 296 297 298 297
222 224 226 227 228 229 231 233 234 236 237 238 238 238 240 242 243 245 247 248 250 250 251 250 249 252 249 237 236 241 243 246 249 250 249 248 248 247 246 247 248 248 249 250 250 250 250 251 252 253 254 257 260 261 263 264 266 267 269 271 272 274 276 278 280 282 283 283 282 281 281 283 285 286 287 288 289 289 290 290 291 292 294 296 296 295
221 223 224 226 227 229 230 232 234 235 236 237 238 239 240 242 243 245 246 248 249 250 250 250 249 251 250 241 234 237 240 244 248 250 251 251 251 250 248 247 248 250 251 252 253 252 252 253 253 254 256 257 259 261 262 264 265 266 268 269 271 273 275 277 278 280 281 281 281 281 282 283 284 285 286 287 286 287 288 289 290 291 293 294 294 294
222 223 225 226 228 229 231 232 234 235 236 237 238 239 240 242 243 245 246 247 249 250 250 250 249 250 250 245 238 235 236 239 243 248 252 253 253 252 250 248 247 250 254 256 257 256 256 255 255 256 257 257 259 260 261 262 264 265 267 268 270 272 274 275 277 278 280 281 281 282 283 284 285 285 286 286 286 287 288 288 289 291 292 293 293 294
223 225 226 228 229 230 232 233 234 235 236 238 239 240 241 242 244 245 247 248 250 251 251 250 249 248 249 248 244 239 236 237 240 245 250 253 255 254 254 252 252 253 255 257 259 259 259 258 258 258 258 259 260 261 262 263 264 266 267 269 271 272 274 275 276 278 280 282 283 284 284 285 285 286 286 286 286 287 288 289 289 290 291 292 293 292
226 227 227 229 230 232 233 235 236 237 238 239 240 240 241 243 244 245 246 248 249 249 249 249 247 247 248 249 248 244 240 238 238 242 245 248 251 253 255 255 256 257 257 258 259 260 261 261 261 261 261 262 263 264 265 266 267 268 269 270 272 274 275 276 277 279 281 283 284 285 285 286 286 287 287 286 287 288 288 289 290 291 292 292 292 292
226 228 229 231 232 233 235 236 237 237 238 239 239 239 240 242 243 245 245 246 247 247 248 248 247 247 247 247 247 247 244 240 238 239 242 245 248 250 252 253 255 256 258 259 260 261 261 261 262 262 263 264 265 266 267 268 269 270 271 273 274 276 277 278 279 281 282 284 285 285 286 286 287 287 287 287 287 288 289 289 290 291 291 291 291 291
224 226 227 229 232 233 235 236 236 237 238 238 239 240 241 242 244 245 246 246 247 247 247 247 246 246 246 246 246 247 246 244 241 240 242 244 246 248 250 251 252 254 256 258 260 262 262 263 263 263 264 265 266 266 267 268 269 270 272 273 275 276 277 279 280 281 282 282 283 284 284 285 285 285 286 286 287 288 288 289 289 289 289 289 290 290
227 228 228 229 231 232 233 235 235 236 238 238 239 240 241 243 244 245 246 246 247 247 246 246 246 246 245 246 247 247 247 246 244 243 243 244 246 248 249 251 252 253 254 256 258 260 262 263 264 265 265 266 266 267 267 268 269 270 271 273 274 275 276 277 277 278 278 279 280 281 281 282 283 283 284 285 286 286 287 288 288 288 288 288 288 288
230 232 232 233 235 235 236 237 237 238 238 239 239 240 241 242 242 243 245 245 246 248 247 246 246 245 245 246 249 251 251 249 248 247 246 246 247 249 251 253 254 256 257 258 258 259 260 262 263 264 264 265 265 266 266 267 268 269 271 272 273 273 274 274 275 276 277 278 278 279 279 280 280 281 282 283 283 284 284 285 285 285 285 285 286 287
231 233 233 234 236 238 238 239 239 238 239 239 240 239 241 242 242 243 245 246 247 249 248 247 246 245 245 247 250 253 255 256 255 253 252 251 251 252 253 255 256 257 259 260 261 261 261 261 261 262 262 263 264 265 266 267 268 269 270 271 272 272 273 274 275 276 276 277 278 278 279 279 280 280 281 281 282 282 282 283 283 284 284 285 286 287
233 235 236 236 237 239 239 239 239 239 240 241 242 242 243 245 246 247 248 249 250 251 251 250 248 247 246 247 249 252 255 259 260 260 260 258 257 256 255 256 257 259 260 262 263 264 264 264 264 264 264 265 265 266 267 268 269 270 270 271 271 272 273 274 275 276 276 277 278 278 278 279 279 280 281 281 282 283 284 284 285 286 287 288 288 289
235 237 239 239 239 239 240 240 240 242 243 244 245 246 247 249 250 252 252 252 253 254 254 252 250 248 249 249 250 251 254 257 261 263 264 264 262 261 259 258 259 260 262 263 264 265 266 266 267 268 268 269 269 270 271 271 272 272 272 273 273 274 274 274 275 275 276 277 277 278 279 279 280 281 282 283 284 285 286 286 287 288 288 289 290 290
238 240 241 242 242 242 242 242 243 244 245 246 246 247 248 249 250 251 252 251 252 253 254 253 251 250 250 252 252 253 254 256 258 261 264 265 266 266 265 265 265 265 265 265 265 266 266 267 268 269 270 271 272 273 273 274 274 275 275 275 275 275 275 275 276 277 277 278 279 279 280 281 282 283 283 284 285 285 286 286 287 288 288 289 289 290
241 243 244 245 245 245 245 244 244 245 246 246 247 247 248 249 250 252 253 253 253 253 254 255 254 251 252 254 256 256 257 258 259 261 263 265 267 268 268 269 269 269 269 268 268 268 268 268 269 269 269 270 271 271 272 273 273 273 274 275 275 276 276 277 277 278 279 280 281 281 282 282 283 283 284 284 284 285 285 286 287 287 288 288 289 289
244 245 245 246 245 246 246 246 245 246 247 247 248 248 249 251 252 253 253 253 254 254 254 256 255 253 255 258 261 262 262 262 263 263 264 266 267 269 270 272 273 273 273 272 271 270 270 269 269 269 269 270 270 271 271 271 272 272 273 274 275 276 276 277 278 279 280 281 281 282 282 283 283 284 284 284 285 285 286 286 286 287 287 287 287 288
246 246 246 245 245 245 245 245 244 244 245 246 247 247 249 250 251 252 253 254 254 254 256 257 257 257 260 263 264 265 264 264 264 265 266 268 270 271 273 274 275 275 275 275 274 273 273 272 271 270 270 271 271 271 271 272 272 273 274 274 275 276 277 277 278 279 280 280 281 282 282 283 284 284 285 285 285 286 286 286 286 286 286 286 287 287
244 245 246 246 246 245 245 245 245 246 248 249 249 250 251 253 254 255 256 256 256 256 258 259 259 260 261 262 263 264 265 266 267 268 269 270 271 272 272 273 273 274 274 275 276 276 276 276 275 274 273 273 273 273 273 273 273 273 274 274 275 276 276 277 278 279 280 281 281 282 283 284 284 285 285 285 286 286 286 287 287 287 287 287 287 288
242 243 244 246 247 247 247 248 248 250 252 253 253 254 255 256 257 257 257 257 257 258 258 258 259 260 260 260 262 264 267 268 269 270 270 270 270 270 271 271 272 273 274 275 276 277 277 277 277 278 278 278 278 278 277 277 277 276 277 277 277 278 278 279 280 281 281 282 283 283 284 284 285 285 285 286 286 286 286 286 287 287 287 287 288 288
241 243 245 246 248 248 249 249 249 249 250 250 250 251 251 252 253 253 254 254 255 256 256 255 257 259 259 260 261 263 265 267 267 268 269 270 270 270 271 272 273 274 275 275 275 276 277 278 279 280 281 282 282 282 282 281 281 280 280 280 280 280 280 281 281 281 282 282 283 283 284 284 285 285 285 285 285 285 285 285 285 285 285 285 286 286
241 243 245 246 248 248 249 250 250 250 250 250 250 250 250 250 250 251 253 253 254 255 255 255 256 257 257 259 260 261 262 263 265 267 268 270 271 272 273 273 274 273 274 275 275 276 277 278 279 280 280 281 281 282 282 283 283 282 282 282 281 281 281 281 281 281 281 282 282 282 283 283 284 284 285 285 285 285 285 284 284 284 284 284 284 285
242 243 244 245 246 247 247 248 248 249 249 249 249 250 250 250 251 253 255 256 256 257 257 257 257 257 258 260 261 262 263 264 266 267 268 269 270 272 273 273 273 273 274 274 275 276 277 278 278 278 278 279 279 280 281 281 282 283 283 283 283 283 283 283 282 282 282 282 282 282 283 283 284 284 284 285 284 284 283 283 283 284 284 284 285 285
242 243 243 244 245 245 246 246 247 247 248 248 248 247 248 249 251 254 256 257 257 258 259 259 259 259 260 261 262 262 263 265 265 266 267 267 268 269 270 271 272 273 274 275 276 277 278 278 278 278 278 278 278 279 280 281 282 282 283 284 284 285 285 285 285 285 284 284 284 284 284 285 285 285 285 284 284 283 282 283 284 284 284 284 284 284
242 242 243 244 244 245 245 246 247 247 248 247 246 247 249 251 254 255 256 256 257 258 259 259 260 261 261 262 262 262 262 263 263 264 264 265 266 267 268 270 271 272 274 275 276 277 278 278 279 279 279 279 279 280 280 281 281 282 283 284 284 285 285 286 286 286 287 287 286 286 286 286 286 286 286 285 284 284 283 284 284 284 284 283 283 283
240 241 242 243 243 244 245 245 246 246 246 246 248 251 253 254 255 255 255 255 257 258 259 259 261 262 261 260 261 261 261 261 261 262 263 263 265 266 268 269 271 272 274 275 276 276 277 277 278 279 279 280 281 281 281 281 282 282 282 283 284 284 285 286 286 287 287 288 288 288 288 288 288 288 288 287 286 286 286 285 285 285 285 284 284 284
240 240 241 242 243 243 244 244 245 244 244 247 251 253 253 254 255 255 256 256 257 258 258 259 260 261 260 260 261 262 262 262 262 262 263 264 266 267 269 270 271 272 273 274 274 275 275 276 277 278 279 280 281 281 282 282 282 282 282 282 283 283 284 284 285 286 286 287 287 287 288 288 288 288 287 287 287 287 286 286 286 286 285 285 285 285
240 241 242 242 243 244 244 244 245 245 248 251 253 252 253 254 255 257 257 258 258 258 260 261 262 263 264 264 264 264 264 264 264 264 265 266 267 269 270 271 272 272 273 273 274 274 275 276 277 278 278 279 280 280 281 281 281 282 282 283 283 284 284 285 285 285 285 285 285 285 285 285 285 285 285 285 285 285 286 286 286 286 286 286 286 286
240 241 242 243 244 245 245 245 246 250 252 252 252 252 254 256 257 259 259 259 260 261 262 263 264 265 265 265 264 264 265 266 266 267 269 269 270 271 271 272 272 272 273 273 274 274 275 276 277 278 279 280 280 280 280 280 280 281 282 283 284 284 285 285 285 285 285 285 284 285 285 285 285 285 285 285 286 286 286 287 287 288 288 288 289 289
241 242 242 243 244 245 247 247 249 251 251 250 251 253 255 256 258 258 259 258 259 261 262 264 264 264 263 264 264 265 266 267 268 269 271 272 272 272 272 272 272 272 272 273 273 274 275 276 277 278 279 280 280 280 280 281 281 282 283 284 284 285 285 285 285 285 285 285 285 286 286 286 286 287 287 287 287 288 288 288 289 289 289 290 290 290
243 243 244 245 246 247 248 249 249 250 249 250 252 254 255 256 257 257 258 257 258 260 263 264 264 264 263 264 264 265 266 267 269 270 270 270 270 270 270 271 271 271 272 273 274 275 276 277 277 277 278 279 279 280 280 281 282 283 284 285 285 285 286 286 286 286 286 286 287 287 287 287 287 288 288 288 288 289 289 289 289 289 290 290 290 291
243 243 244 245 246 246 247 248 249 250 251 251 252 253 255 256 257 258 258 258 260 262 263 263 263 263 263 263 264 265 266 267 268 269 268 267 268 269 270 271 272 272 273 274 275 276 277 277 277 277 278 278 279 280 280 281 282 283 284 285 285 286 286 287 287 287 287 287 287 287 288 288 288 288 289 289 289 289 290 290 290 290 290 290 291 291
243 243 243 244 245 246 247 249 249 251 252 252 252 253 254 256 256 256 257 260 262 261 261 262 263 263 263 264 265 265 266 267 267 267 267 269 271 272 273 273 274 274 275 276 276 277 278 278 278 279 279 279 280 281 281 282 283 283 284 284 285 285 286 286 287 287 287 288 288 288 288 288 288 288 288 288 289 289 289 289 289 289 289 290 290 290
244 245 246 246 247 248 248 249 250 251 252 252 252 253 254 255 254 254 257 262 263 260 260 262 263 263 264 266 268 268 268 269 269 269 271 272 273 274 275 275 275 276 276 277 278 278 279 279 280 280 280 281 281 282 282 283 283 284 284 284 285 285 286 286 287 287 287 288 288 288 288 288 288 288 288 288 288 288 288 288 288 288 288 288 288 288
247 248 249 250 251 251 252 253 254 254 252 251 253 254 254 256 257 258 261 264 264 262 262 262 262 263 264 266 268 269 270 270 270 271 272 273 274 275 275 276 276 277 277 278 278 278 279 279 280 280 280 281 281 282 282 282 283 283 283 284 284 285 285 286 286 286 287 287 287 287 287 287 288 288 288 288 288 288 288 288 288 288 288 288 288 288
248 249 249 250 251 253 254 255 256 256 254 252 254 256 256 258 260 262 262 263 262 261 260 260 261 262 264 266 268 269 269 270 270 271 272 273 273 274 275 275 276 276 277 277 277 278 278 279 279 279 280 280 280 281 281 281 282 282 282 283 283 283 284 284 285 285 285 285 285 286 286 286 286 287 287 287 287 288 288 288 288 289 289 289 289 289
245 245 247 249 251 251 251 252 255 258 258 256 257 258 258 259 261 262 262 262 261 259 258 257 258 261 263 266 268 269 269 269 269 270 270 271 271 272 273 273 274 274 275 276 276 277 277 277 278 278 278 279 279 279 280 280 281 281 281 281 281 282 282 283 283 283 284 284 284 284 285 285 285 286 286 287 287 287 288 288 288 288 289 289 289 289
243 244 246 248 248 247 247 248 250 253 255 256 258 258 259 259 260 261 261 261 261 259 258 258 259 262 265 267 268 268 269 268 268 268 268 269 270 270 271 272 272 273 274 274 275 275 276 276 277 277 277 278 279 279 279 280 280 280 280 280 280 280 281 281 281 282 282 283 283 283 284 284 285 286 286 287 287 288 288 288 288 289 289 290 290 290
243 243 243 244 244 244 245 246 247 249 251 253 255 256 257 258 260 261 261 261 261 260 261 261 262 264 266 266 266 266 267 267 267 267 268 269 269 270 271 272 272 272 273 273 274 274 275 275 275 276 276 277 277 278 278 278 279 279 279 279 280 280 280 281 281 281 282 282 283 283 284 285 285 286 287 287 288 288 289 289 289 289 290 290 291 291
243 244 243 244 245 245 245 246 247 249 250 251 251 252 254 255 257 258 259 260 260 261 262 263 264 265 265 266 266 266 266 266 267 267 268 269 269 270 270 271 271 272 272 273 273 273 274 274 274 275 275 275 276 277 277 278 278 279 279 279 279 280 280 281 281 281 282 282 283 284 285 285 286 286 287 288 288 289 290 290 290 290 291 291 291 291
245 245 246 247 248 248 249 248 248 248 250 250 251 251 252 253 254 255 257 258 259 260 261 262 263 264 264 265 265 266 266 267 267 268 269 269 270 270 270 270 271 271 271 272 272 272 273 273 273 274 274 275 275 276 277 278 278 279 279 279 280 280 280 281 281 282 282 283 284 284 285 286 286 287 287 288 288 289 290 290 290 290 291 291 291 291
246 246 246 248 249 250 250 251 251 251 252 253 253 254 254 255 255 256 257 258 258 259 260 261 262 263 264 264 265 266 266 267 267 268 268 269 269 270 270 270 270 271 271 272 272 272 273 273 274 274 274 275 276 276 277 278 278 279 280 280 280 280 281 281 282 282 283 284 284 285 286 286 287 288 288 288 288 289 289 289 289 290 290 290 291 291
249 249 249 250 251 252 252 254 255 255 255 256 256 257 257 257 257 258 258 259 260 261 261 262 263 263 264 265 265 266 266 266 267 268 268 269 269 269 269 270 270 270 271 272 272 273 273 274 274 274 275 275 276 277 277 278 279 280 281 281 282 282 282 283 283 284 285 285 286 286 287 287 287 288 288 288 288 288 288 288 289 290 290 290 290 291
253 254 254 255 256 257 257 258 258 258 258 258 258 258 258 258 259 259 260 260 261 262 262 263 263 264 264 264 265 265 266 266 267 267 268 269 269 270 270 271 271 272 272 273 273 274 274 275 275 276 276 277 277 278 279 280 280 281 282 283 283 284 284 285 285 285 286 286 287 287 287 287 288 288 288 288 288 289 289 289 289 290 290 291 291 291
Height
5808 5810 5814 5818 5821 5823 5825 5826 5827 5829 5831 5832 5834 5836 5838 5840 5842 5843 5844 5845 5846 5848 5849 5850 5851 5853 5853 5854 5856 5856 5858 5860 5860 5860 5861 5862 5863 5863 5864 5864 5865 5865 5864 5864 5866 5867 5867 5867 5867 5868 5869 5869 5869 5869 5869 5869 5869 5869 5869 5869 5870 5870 5870 5869 5869 5869 5868 5868 5868 5867 5867 5866 5866 5865 5865 5864 5863 5863 5862 5861 5861 5860 5859 5859 5858 5857
5805 5809 5813 5816 5817 5819 5820 5822 5824 5826 5828 5830 5832 5834 5836 5837 5839 5840 5841 5842 5843 5845 5846 5847 5849 5851 5851 5851 5853 5854 5856 5858 5858 5858 5859 5860 5861 5861 5862 5862 5862 5862 5862 5863 5864 5864 5865 5865 5866 5867 5868 5868 5868 5868 5868 5868 5867 5867 5867 5867 5868 5868 5868 5868 5868 5867 5867 5867 5866 5866 5865 5865 5864 5863 5863 5862 5862 5861 5860 5860 5859 5858 5858 5857 5856 5855
5803 5807 5810 5811 5813 5815 5817 5820 5822 5825 5827 5828 5830 5832 5833 5835 5836 5837 5838 5839 5841 5842 5843 5844 5846 5849 5849 5849 5850 5852 5854 5856 5856 5857 5857 5857 5858 5858 5859 5860 5860 5861 5860 5861 5862 5862 5863 5864 5865 5866 5866 5866 5866 5867 5867 5866 5866 5866 5866 5866 5866 5867 5867 5866 5866 5866 5866 5865 5865 5864 5863 5863 5862 5862 5861 5860 5860 5859 5859 5858 5857 5856 5856 5855 5854 5853
5803 5806 5807 5808 5810 5813 5815 5818 5820 5823 5825 5826 5828 5829 5830 5832 5833 5834 5835 5837 5838 5839 5840 5842 5844 5846 5847 5847 5848 5849 5851 5853 5853 5854 5854 5854 5855 5856 5857 5858 5858 5858 5858 5859 5860 5861 5862 5863 5863 5864 5864 5864 5865 5865 5866 5865 5865 5865 5865 5864 5864 5865 5865 5864 5864 5864 5864 5864 5863 5862 5862 5861 5861 5860 5859 5859 5858 5857 5857 5856 5855 5854 5853 5852 5851 5850
5799 5801 5803 5806 5808 5810 5813 5816 5818 5820 5822 5824 5825 5826 5828 5829 5830 5832 5833 5834 5835 5836 5837 5839 5840 5843 5844 5844 5845 5846 5848 5850 5850 5851 5851 5852 5853 5854 5855 5856 5856 5856 5856 5856 5857 5859 5860 5861 5861 5862 5862 5863 5863 5864 5864 5864 5864 5864 5863 5863 5862 5863 5862 5862 5862 5862 5862 5862 5861 5861 5860 5859 5859 5858 5857 5857 5856 5855 5855 5854 5853 5852 5851 5850 5849 5847
5794 5796 5799 5802 5804 5807 5810 5813 5815 5817 5819 5820 5822 5823 5825 5826 5828 5829 5830 5831 5832 5833 5835 5836 5837 5839 5842 5842 5842 5843 5844 5846 5847 5847 5848 5849 5851 5851 5852 5852 5853 5853 5853 5854 5855 5856 5858 5858 5859 5860 5860 5861 5861 5861 5862 5862 5862 5861 5861 5861 5861 5860 5860 5860 5860 5860 5860 5859 5859 5859 5858 5858 5857 5856 5855 5854 5854 5853 5852 5851 5850 5849 5848 5847 5846 5845
5791 5794 5797 5799 5802 5805 5807 5810 5812 5814 5815 5817 5819 5821 5822 5823 5825 5826 5827 5828 5829 5830 5832 5833 5833 5836 5839 5840 5840 5841 5841 5842 5844 5845 5845 5846 5848 5848 5849 5849 5850 5851 5852 5852 5853 5854 5855 5856 5857 5857 5858 5858 5859 5859 5859 5859 5859 5859 5859 5858 5858 5858 5857 5857 5857 5857 5857 5857 5857 5856 5856 5856 5855 5854 5853 5852 5852 5851 5850 5849 5848 5846 5845 5844 5843 5842
5790 5792 5795 5798 5800 5803 5805 5808 5810 5811 5813 5814 5816 5818 5819 5820 5822 5823 5824 5825 5826 5827 5829 5830 5830 5832 5836 5838 5838 5839 5839 5839 5840 5841 5842 5843 5844 5845 5846 5846 5847 5848 5850 5851 5851 5851 5852 5853 5854 5855 5855 5855 5856 5856 5856 5856 5856 5856 5856 5856 5856 5855 5855 5855 5855 5855 5854 5854 5854 5854 5854 5853 5852 5852 5851 5850 5850 5849 5848 5847 5845 5844 5842 5841 5840 5838
5787 5790 5792 5795 5798 5800 5803 5805 5806 5808 5809 5811 5813 5814 5816 5817 5818 5820 5821 5822 5823 5825 5826 5828 5828 5828 5832 5836 5836 5835 5836 5835 5836 5838 5839 5840 5841 5842 5843 5844 5845 5846 5847 5848 5848 5849 5849 5850 5851 5852 5852 5852 5852 5853 5853 5853 5853 5853 5853 5853 5852 5852 5852 5852 5852 5852 5852 5852 5852 5851 5851 5850 5850 5849 5848 5848 5847 5846 5844 5843 5842 5840 5839 5838 5837 5835
5783 5786 5789 5791 5794 5797 5799 5800 5802 5804 5805 5807 5809 5811 5812 5814 5815 5817 5818 5819 5820 5821 5823 5825 5826 5825 5828 5833 5833 5833 5833 5833 5833 5834 5835 5837 5838 5840 5841 5841 5842 5843 5844 5845 5845 5846 5846 5847 5848 5849 5849 5849 5849 5849 5850 5850 5849 5849 5849 5849 5849 5849 5849 5849 5849 5849 5849 5849 5849 5848 5847 5847 5847 5846 5845 5844 5843 5842 5841 5840 5838 5837 5836 5834 5833 5831
5779 5781 5784 5787 5790 5792 5794 5796 5799 5800 5802 5804 5805 5807 5809 5810 5812 5814 5815 5817 5817 5818 5820 5822 5823 5823 5824 5829 5830 5830 5831 5830 5831 5831 5832 5834 5835 5837 5838 5839 5839 5840 5840 5841 5842 5843 5843 5844 5844 5845 5846 5846 5846 5846 5846 5846 5846 5846 5846 5845 5846 5846 5845 5846 5845 5845 5845 5845 5845 5844 5844 5844 5843 5842 5841 5841 5839 5838 5837 5835 5834 5833 5832 5830 5828 5827
5776 5778 5781 5784 5786 5789 5791 5793 5795 5797 5799 5800 5802 5804 5806 5807 5809 5810 5812 5813 5814 5815 5818 5819 5821 5821 5821 5825 5827 5827 5828 5828 5828 5829 5830 5831 5832 5833 5835 5836 5837 5837 5837 5838 5839 5839 5840 5840 5841 5841 5842 5842 5842 5842 5842 5842 5842 5842 5842 5842 5842 5842 5842 5842 5842 5842 5841 5841 5841 5841 5840 5840 5839 5838 5837 5836 5835 5834 5833 5831 5830 5829 5827 5826 5824 5823
5773 5775 5778 5781 5783 5786 5788 5790 5792 5794 5796 5797 5799 5801 5802 5804 5806 5807 5808 5810 5811 5813 5815 5816 5818 5818 5819 5821 5823 5824 5825 5826 5826 5827 5827 5828 5829 5830 5831 5832 5834 5834 5835 5835 5835 5836 5836 5837 5837 5837 5838 5838 5838 5838 5838 5838 5838 5838 5838 5838 5838 5839 5839 5839 5838 5838 5838 5837 5837 5837 5836 5836 5835 5834 5833 5832 5831 5829 5828 5827 5826 5824 5823 5822 5820 5818
5771 5773 5775 5778 5781 5783 5785 5787 5789 5792 5793 5795 5796 5798 5799 5801 5802 5804 5805 5807 5808 5810 5811 5813 5814 5815 5817 5818 5819 5820 5822 5823 5825 5824 5824 5825 5826 5827 5828 5829 5830 5831 5831 5831 5832 5832 5833 5833 5834 5834 5834 5834 5835 5835 5834 5834 5835 5835 5834 5834 5835 5835 5835 5835 5835 5835 5834 5833 5833 5832 5832 5831 5830 5829 5828 5827 5826 5825 5823 5822 5821 5819 5818 5817 5815 5813
5767 5770 5774 5776 5778 5781 5782 5784 5786 5788 5789 5790 5792 5794 5795 5797 5799 5800 5802 5803 5805 5806 5808 5810 5811 5813 5815 5815 5816 5816 5818 5820 5821 5821 5821 5822 5824 5824 5825 5826 5826 5826 5827 5827 5828 5829 5829 5830 5830 5830 5830 5831 5831 5831 5830 5830 5830 5830 5830 5831 5831 5832 5832 5831 5831 5831 5830 5829 5828 5827 5826 5826 5825 5824 5823 5822 5820 5819 5818 5817 5816 5814 5813 5811 5809 5808
5764 5767 5770 5772 5774 5776 5778 5779 5781 5783 5784 5786 5788 5790 5792 5794 5796 5797 5798 5800 5801 5803 5804 5806 5808 5810 5812 5812 5812 5813 5815 5816 5817 5817 5818 5819 5820 5821 5822 5822 5822 5822 5823 5823 5824 5825 5825 5826 5826 5827 5827 5827 5827 5826 5826 5826 5826 5826 5826 5827 5827 5827 5827 5827 5826 5825 5825 5824 5823 5822 5821 5820 5819 5818 5817 5815 5814 5813 5812 5811 5810 5808 5807 5805 5803 5802
5762 5764 5766 5768 5769 5771 5772 5774 5776 5778 5780 5783 5785 5787 5790 5791 5792 5793 5794 5796 5797 5798 5800 5803 5805 5807 5808 5808 5809 5810 5811 5812 5812 5813 5815 5816 5817 5818 5818 5818 5818 5818 5819 5820 5820 5821 5822 5822 5822 5823 5823 5822 5822 5821 5821 5821 5821 5821 5822 5823 5822 5822 5821 5821 5820 5819 5818 5818 5817 5816 5815 5814 5813 5812 5810 5809 5808 5807 5806 5804 5803 5801 5799 5798 5796 5795
5759 5760 5762 5764 5765 5767 5769 5770 5772 5774 5777 5779 5782 5784 5786 5786 5787 5789 5790 5791 5793 5794 5797 5800 5802 5804 5805 5806 5806 5806 5807 5808 5809 5810 5811 5812 5813 5814 5814 5814 5814 5814 5815 5816 5817 5818 5818 5818 5818 5818 5818 5817 5816 5816 5816 5815 5816 5817 5818 5818 5817 5816 5815 5815 5814 5813 5813 5812 5811 5810 5809 5808 5807 5805 5804 5803 5801 5800 5799 5797 5796 5794 5793 5791 5789 5788
5753 5754 5756 5758 5760 5762 5764 5765 5767 5770 5773 5776 5778 5780 5780 5781 5783 5786 5786 5788 5790 5791 5793 5796 5798 5800 5802 5803 5803 5803 5802 5803 5804 5806 5807 5808 5809 5810 5810 5810 5810 5810 5811 5812 5813 5814 5814 5813 5813 5813 5812 5812 5812 5811 5811 5811 5811 5812 5813 5813 5811 5810 5810 5810 5809 5808 5807 5806 5805 5804 5803 5801 5800 5799 5798 5797 5795 5794 5793 5791 5789 5788 5786 5784 5782 5781
5748 5749 5750 5753 5755 5756 5758 5760 5763 5767 5770 5772 5773 5775 5776 5778 5780 5782 5783 5785 5786 5788 5790 5791 5794 5796 5798 5800 5800 5799 5799 5799 5799 5801 5802 5803 5804 5805 5805 5805 5806 5807 5808 5808 5809 5809 5808 5808 5808 5808 5807 5807 5807 5807 5806 5806 5806 5807 5807 5807 5806 5805 5804 5804 5803 5802 5800 5800 5799 5797 5796 5795 5794 5793 5792 5790 5789 5788 5786 5784 5782 5781 5779 5778 5775 5773
5743 5744 5746 5748 5749 5750 5753 5757 5761 5764 5766 5767 5769 5771 5773 5775 5777 5778 5779 5781 5783 5784 5786 5787 5789 5792 5794 5795 5795 5796 5796 5796 5796 5796 5796 5797 5798 5799 5799 5801 5802 5803 5804 5805 5804 5804 5803 5803 5803 5803 5802 5802 5802 5801 5801 5801 5800 5800 5801 5801 5800 5799 5798 5797 5796 5796 5794 5793 5792 5790 5789 5787 5787 5786 5785 5783 5782 5781 5779 5777 5775 5774 5773 5771 5769 5766
5737 5739 5741 5742 5743 5747 5751 5754 5757 5758 5759 5762 5764 5766 5768 5770 5772 5772 5774 5777 5779 5780 5781 5782 5784 5787 5789 5790 5791 5792 5792 5793 5793 5792 5791 5791 5791 5792 5793 5796 5797 5799 5799 5800 5799 5798 5798 5798 5798 5798 5797 5797 5796 5796 5795 5795 5795 5795 5794 5794 5793 5793 5792 5791 5790 5789 5788 5786 5785 5784 5782 5781 5780 5780 5779 5777 5775 5774 5772 5770 5769 5767 5766 5765 5762 5759
5732 5734 5735 5737 5740 5743 5745 5748 5750 5751 5753 5756 5757 5761 5764 5764 5767 5768 5769 5773 5774 5775 5776 5778 5779 5782 5784 5786 5786 5787 5788 5789 5788 5788 5787 5786 5785 5786 5787 5790 5791 5792 5793 5794 5793 5793 5793 5793 5793 5793 5792 5792 5791 5791 5790 5790 5789 5789 5788 5788 5787 5786 5785 5784 5783 5782 5781 5780 5778 5777 5776 5775 5774 5773 5772 5771 5769 5768 5766 5764 5762 5760 5759 5757 5755 5752
5726 5727 5729 5731 5734 5736 5738 5741 5744 5745 5748 5750 5753 5758 5759 5760 5763 5763 5764 5767 5767 5769 5773 5773 5774 5778 5781 5782 5782 5782 5782 5783 5782 5782 5782 5781 5780 5780 5782 5784 5785 5785 5785 5786 5786 5786 5787 5787 5787 5787 5786 5786 5785 5785 5784 5784 5783 5783 5782 5782 5781 5780 5779 5778 5777 5775 5774 5773 5772 5771 5770 5768 5767 5766 5765 5764 5762 5760 5758 5757 5755 5753 5751 5750 5748 5746
5719 5719 5722 5724 5726 5728 5730 5733 5736 5740 5743 5746 5750 5753 5754 5756 5756 5756 5759 5760 5760 5765 5768 5767 5770 5776 5778 5778 5777 5775 5776 5776 5775 5776 5776 5775 5774 5775 5776 5777 5778 5778 5778 5777 5777 5777 5778 5779 5779 5780 5780 5779 5779 5779 5778 5778 5777 5777 5776 5775 5774 5773 5772 5771 5770 5769 5768 5767 5765 5764 5763 5761 5760 5759 5757 5756 5754 5752 5751 5749 5748 5746 5744 5742 5741 5739
5710 5711 5715 5717 5718 5721 5725 5729 5734 5739 5742 5743 5745 5748 5749 5750 5750 5752 5754 5752 5755 5762 5763 5763 5768 5772 5773 5773 5771 5768 5768 5768 5769 5771 5771 5769 5769 5769 5771 5771 5771 5771 5770 5770 5769 5769 5770 5770 5770 5771 5772 5772 5773 5773 5772 5772 5771 5770 5769 5769 5768 5767 5766 5764 5763 5762 5760 5759 5758 5757 5755 5754 5753 5752 5750 5748 5746 5744 5743 5741 5739 5738 5736 5734 5733 5731
5702 5703 5708 5710 5713 5718 5723 5726 5731 5734 5735 5736 5739 5742 5742 5743 5745 5746 5744 5745 5753 5757 5755 5758 5764 5765 5767 5767 5764 5763 5762 5761 5764 5765 5763 5762 5762 5763 5764 5764 5765 5764 5763 5763 5763 5762 5762 5762 5762 5762 5762 5763 5764 5764 5764 5764 5763 5762 5761 5760 5760 5760 5758 5757 5756 5754 5753 5752 5751 5749 5748 5746 5745 5744 5743 5741 5739 5737 5735 5734 5732 5730 5728 5726 5724 5723
5695 5698 5703 5706 5709 5715 5718 5719 5721 5724 5725 5728 5731 5732 5733 5735 5736 5735 5735 5742 5749 5747 5746 5755 5758 5758 5761 5759 5757 5760 5757 5755 5758 5758 5756 5754 5753 5755 5758 5758 5758 5758 5756 5756 5756 5755 5755 5755 5755 5755 5754 5754 5754 5754 5754 5753 5753 5753 5753 5752 5751 5751 5750 5749 5748 5747 5745 5744 5743 5742 5741 5739 5738 5737 5735 5733 5732 5730 5728 5727 5725 5723 5721 5719 5717 5716
5689 5693 5699 5701 5704 5709 5710 5710 5713 5717 5718 5720 5722 5724 5726 5726 5727 5728 5732 5739 5741 5738 5744 5752 5750 5751 5755 5751 5751 5755 5750 5748 5753 5753 5750 5748 5746 5748 5750 5751 5751 5750 5749 5749 5749 5749 5749 5749 5749 5749 5748 5747 5747 5746 5745 5744 5744 5744 5743 5743 5743 5742 5742 5742 5741 5739 5738 5737 5736 5735 5734 5732 5731 5729 5728 5726 5724 5723 5721 5719 5718 5716 5714 5712 5711 5709
5684 5688 5693 5695 5698 5702 5702 5703 5706 5709 5710 5712 5715 5717 5719 5719 5721 5724 5729 5734 5734 5733 5739 5742 5740 5745 5750 5745 5746 5748 5743 5744 5749 5747 5744 5743 5742 5742 5742 5742 5742 5742 5742 5742 5741 5742 5743 5743 5743 5742 5741 5741 5740 5740 5739 5737 5736 5735 5734 5734 5734 5733 5733 5733 5732 5731 5730 5729 5728 5727 5726 5725 5723 5722 5720 5718 5717 5715 5714 5712 5711 5709 5707 5705 5704 5702
5679 5683 5686 5689 5691 5693 5695 5697 5699 5700 5702 5704 5706 5709 5711 5713 5716 5719 5724 5728 5726 5726 5732 5733 5731 5740 5746 5741 5740 5741 5738 5739 5741 5740 5738 5738 5737 5736 5735 5735 5736 5735 5735 5735 5735 5735 5735 5734 5734 5734 5733 5733 5733 5733 5732 5730 5729 5728 5726 5726 5725 5724 5724 5723 5723 5722 5721 5720 5719 5718 5717 5716 5715 5714 5712 5711 5709 5708 5707 5705 5704 5702 5700 5699 5697 5695
5674 5677 5680 5682 5682 5684 5689 5690 5690 5693 5694 5693 5696 5702 5706 5709 5712 5716 5718 5720 5719 5721 5725 5724 5725 5735 5740 5735 5732 5733 5732 5733 5733 5732 5731 5730 5730 5729 5729 5730 5730 5729 5729 5729 5729 5729 5728 5726 5725 5724 5724 5724 5725 5725 5725 5724 5722 5720 5719 5718 5717 5716 5715 5714 5714 5713 5711 5710 5709 5708 5707 5706 5706 5704 5703 5702 5701 5700 5699 5697 5696 5694 5692 5691 5689 5688
5667 5670 5673 5675 5674 5678 5682 5682 5683 5685 5682 5682 5692 5701 5704 5705 5707 5708 5709 5711 5714 5716 5716 5716 5721 5728 5729 5725 5724 5724 5723 5724 5724 5724 5723 5723 5724 5723 5723 5724 5724 5723 5723 5722 5722 5721 5720 5719 5718 5716 5716 5715 5716 5717 5716 5716 5715 5712 5711 5711 5709 5708 5707 5706 5705 5704 5702 5701 5699 5698 5697 5696 5696 5695 5694 5693 5692 5691 5690 5688 5687 5685 5684 5683 5681 5680
5660 5663 5666 5666 5668 5671 5673 5675 5676 5672 5669 5680 5695 5699 5698 5698 5699 5699 5701 5706 5708 5707 5707 5710 5715 5718 5716 5717 5718 5715 5714 5716 5716 5716 5716 5717 5718 5718 5718 5718 5718 5718 5717 5716 5715 5714 5712 5712 5711 5709 5709 5708 5708 5708 5707 5707 5706 5704 5703 5702 5701 5700 5699 5699 5698 5696 5695 5693 5691 5690 5689 5688 5688 5687 5686 5684 5683 5682 5681 5679 5678 5676 5675 5674 5673 5671
5655 5658 5658 5660 5662 5663 5665 5667 5664 5660 5668 5684 5691 5691 5690 5691 5691 5692 5694 5698 5699 5699 5700 5703 5708 5710 5708 5709 5710 5707 5705 5707 5706 5708 5710 5711 5712 5712 5711 5711 5711 5711 5710 5709 5708 5707 5705 5704 5703 5701 5701 5701 5701 5701 5699 5698 5698 5696 5694 5693 5693 5692 5691 5691 5690 5688 5687 5686 5684 5683 5682 5681 5680 5679 5677 5676 5674 5673 5671 5669 5668 5666 5665 5664 5663 5661
5649 5650 5651 5654 5655 5655 5657 5658 5655 5658 5671 5680 5680 5683 5686 5685 5685 5686 5686 5689 5692 5693 5694 5697 5702 5703 5700 5699 5700 5698 5696 5697 5698 5700 5702 5703 5705 5705 5704 5704 5703 5702 5702 5701 5700 5700 5698 5697 5695 5694 5692 5692 5693 5692 5691 5690 5689 5688 5686 5685 5684 5683 5682 5682 5681 5679 5678 5677 5675 5673 5672 5671 5671 5670 5668 5666 5665 5663 5661 5659 5658 5655 5653 5653 5652 5649
5642 5643 5646 5647 5647 5648 5650 5651 5652 5656 5663 5669 5674 5680 5681 5678 5679 5678 5676 5680 5686 5687 5687 5691 5694 5695 5691 5690 5691 5690 5689 5690 5691 5693 5696 5696 5696 5696 5695 5695 5695 5694 5694 5693 5692 5692 5691 5690 5689 5687 5685 5684 5684 5683 5682 5681 5680 5679 5678 5676 5675 5674 5673 5672 5671 5670 5669 5667 5665 5664 5662 5661 5661 5660 5658 5656 5655 5653 5652 5649 5647 5645 5642 5641 5640 5638
5635 5637 5640 5640 5639 5642 5643 5644 5646 5646 5653 5667 5675 5675 5674 5671 5670 5669 5665 5671 5682 5684 5683 5684 5685 5685 5684 5683 5683 5683 5682 5683 5685 5688 5689 5687 5687 5687 5686 5686 5687 5686 5686 5685 5685 5684 5683 5682 5681 5679 5678 5676 5675 5675 5675 5673 5671 5670 5668 5666 5665 5664 5663 5662 5661 5661 5660 5658 5656 5654 5652 5651 5650 5649 5648 5646 5644 5643 5641 5639 5636 5634 5631 5629 5629 5628
5628 5630 5633 5632 5631 5635 5636 5636 5637 5638 5649 5666 5671 5667 5666 5663 5663 5661 5655 5662 5679 5683 5677 5676 5676 5676 5677 5675 5675 5677 5676 5677 5681 5682 5679 5678 5678 5678 5678 5678 5679 5679 5678 5678 5677 5676 5674 5673 5672 5671 5670 5668 5667 5666 5666 5665 5663 5661 5659 5657 5655 5654 5654 5652 5652 5651 5650 5648 5646 5644 5642 5640 5639 5637 5636 5635 5633 5631 5629 5627 5625 5622 5620 5618 5616 5615
5621 5622 5625 5624 5624 5628 5630 5629 5630 5633 5646 5660 5662 5660 5659 5656 5656 5652 5646 5658 5677 5677 5669 5668 5667 5667 5669 5668 5668 5670 5669 5670 5673 5671 5668 5669 5670 5669 5669 5670 5669 5670 5669 5669 5668 5667 5665 5664 5663 5661 5660 5659 5658 5657 5657 5656 5655 5653 5651 5649 5647 5646 5645 5644 5643 5642 5640 5638 5636 5634 5631 5629 5627 5626 5624 5623 5622 5621 5618 5615 5613 5611 5609 5607 5605 5603
5614 5615 5617 5617 5619 5623 5623 5623 5624 5628 5640 5652 5654 5653 5653 5648 5645 5643 5646 5659 5669 5664 5661 5662 5659 5659 5662 5661 5660 5662 5662 5662 5663 5661 5660 5661 5660 5660 5661 5660 5660 5660 5660 5660 5659 5658 5656 5655 5654 5653 5651 5650 5650 5649 5648 5647 5646 5644 5642 5640 5639 5638 5637 5636 5634 5633 5631 5629 5626 5623 5620 5618 5616 5614 5612 5610 5609 5609 5607 5604 5601 5600 5598 5596 5594 5592
5608 5609 5610 5611 5613 5615 5616 5617 5617 5620 5633 5645 5646 5645 5644 5637 5633 5640 5649 5654 5653 5652 5653 5653 5650 5652 5653 5652 5652 5653 5652 5653 5654 5653 5652 5652 5652 5652 5652 5651 5651 5651 5651 5651 5650 5649 5648 5646 5645 5644 5642 5641 5640 5639 5639 5638 5636 5634 5632 5631 5629 5629 5628 5627 5625 5623 5621 5618 5615 5613 5610 5607 5605 5602 5600 5598 5597 5596 5595 5592 5588 5587 5585 5583 5582 5580
5602 5603 5602 5604 5608 5610 5609 5610 5608 5611 5628 5640 5638 5634 5634 5630 5629 5638 5643 5642 5642 5644 5644 5643 5642 5643 5643 5644 5645 5644 5644 5645 5645 5645 5645 5645 5644 5645 5644 5643 5643 5642 5641 5642 5641 5641 5640 5638 5636 5635 5633 5631 5630 5629 5628 5628 5626 5624 5622 5620 5619 5618 5618 5616 5615 5613 5611 5608 5605 5602 5599 5597 5595 5592 5589 5587 5585 5583 5582 5580 5577 5574 5571 5569 5567 5566
5592 5594 5594 5598 5603 5602 5600 5601 5604 5609 5622 5630 5627 5625 5626 5625 5626 5630 5631 5631 5634 5635 5635 5635 5635 5634 5635 5636 5637 5636 5637 5638 5637 5638 5638 5637 5636 5637 5636 5635 5634 5633 5632 5632 5631 5632 5631 5630 5628 5626 5623 5622 5620 5619 5618 5617 5616 5614 5612 5609 5608 5608 5607 5606 5605 5603 5601 5597 5594 5592 5589 5587 5585 5582 5579 5576 5573 5571 5570 5568 5565 5563 5560 5556 5553 5552
5584 5588 5591 5592 5594 5594 5593 5597 5603 5607 5613 5616 5618 5619 5618 5617 5619 5620 5621 5623 5625 5625 5626 5628 5627 5627 5628 5629 5628 5629 5629 5629 5629 5630 5629 5628 5629 5628 5627 5627 5626 5625 5624 5623 5622 5623 5622 5621 5620 5618 5615 5613 5610 5608 5608 5606 5605 5604 5601 5598 5597 5597 5597 5596 5594 5592 5590 5587 5584 5581 5579 5577 5575 5571 5568 5565 5561 5559 5557 5555 5553 5551 5548 5545 5541 5538
5578 5582 5584 5584 5584 5585 5586 5590 5596 5600 5604 5607 5609 5610 5609 5609 5610 5611 5611 5613 5614 5616 5618 5619 5619 5620 5620 5619 5620 5621 5620 5620 5621 5621 5620 5620 5620 5619 5619 5618 5617 5616 5615 5614 5613 5613 5612 5612 5611 5609 5607 5605 5601 5599 5598 5596 5594 5593 5591 5588 5586 5586 5586 5585 5583 5582 5579 5576 5573 5571 5567 5565 5564 5561 5558 5554 5550 5547 5545 5542 5540 5539 5537 5533 5529 5526
5570 5573 5575 5574 5574 5575 5577 5582 5589 5593 5595 5597 5599 5600 5602 5601 5601 5601 5602 5603 5604 5606 5608 5609 5609 5610 5610 5609 5610 5611 5611 5612 5612 5611 5612 5612 5611 5610 5610 5609 5607 5607 5606 5605 5604 5604 5603 5602 5601 5600 5599 5596 5593 5591 5589 5586 5584 5582 5580 5578 5576 5575 5575 5574 5572 5571 5568 5565 5562 5560 5557 5554 5552 5550 5547 5544 5540 5536 5534 5531 5527 5526 5525 5521 5517 5514
5562 5565 5565 5564 5565 5568 5570 5576 5583 5585 5585 5587 5589 5591 5592 5592 5592 5593 5594 5594 5595 5597 5598 5599 5600 5600 5600 5600 5601 5601 5602 5603 5603 5602 5603 5602 5601 5601 5601 5599 5599 5598 5596 5595 5595 5594 5593 5592 5592 5590 5589 5587 5584 5582 5580 5577 5575 5572 5570 5568 5566 5565 5565 5564 5562 5560 5558 5555 5552 5550 5547 5544 5542 5540 5537 5534 5530 5526 5523 5520 5516 5514 5513 5509 5504 5502
5553 5554 5556 5557 5558 5560 5563 5569 5574 5576 5577 5578 5580 5581 5582 5583 5584 5585 5585 5586 5587 5587 5588 5589 5590 5591 5592 5592 5592 5593 5594 5593 5594 5594 5593 5592 5592 5592 5591 5590 5590 5588 5587 5586 5585 5584 5583 5583 5582 5581 5579 5577 5575 5572 5570 5568 5566 5563 5560 5558 5556 5555 5554 5553 5552 5550 5548 5545 5542 5539 5536 5533 5531 5528 5525 5523 5520 5517 5513 5510 5505 5502 5501 5499 5493 5489
5544 5547 5550 5552 5551 5553 5559 5565 5567 5566 5568 5569 5571 5572 5573 5574 5575 5576 5576 5577 5578 5578 5579 5581 5582 5583 5583 5584 5584 5585 5585 5585 5585 5584 5583 5583 5583 5582 5582 5582 5580 5579 5578 5577 5575 5575 5574 5572 5572 5571 5569 5567 5565 5563 5561 5559 5556 5553 5550 5548 5546 5545 5543 5541 5540 5539 5536 5533 5530 5528 5525 5522 5520 5517 5513 5510 5507 5505 5503 5500 5495 5490 5488 5487 5484 5479
5539 5542 5544 5545 5545 5549 5555 5558 5557 5556 5558 5560 5561 5562 5563 5565 5566 5567 5568 5569 5569 5570 5571 5571 5572 5573 5574 5575 5576 5576 5576 5576 5576 5575 5574 5573 5573 5572 5572 5572 5570 5569 5568 5567 5566 5565 5564 5562 5561 5560 5559 5557 5555 5553 5551 5549 5545 5542 5539 5537 5535 5533 5531 5529 5527 5526 5524 5521 5517 5515 5512 5509 5507 5504 5501 5497 5493 5490 5488 5488 5486 5482 5476 5473 5471 5469